Other Public Products
Issued by NWS Grand Forks, ND

Home | Current Version | Previous Version | Graphics & Text | Print | Product List | Glossary On
Versions: 1 2 3 4 5 6 7 8 9 10 11 12 13 14 15 16 17 18 19 20 21 22 23 24 25 26 27 28 29 30 31 32 33 34 35 36 37 38 39 40 41 42 43 44 45 46 47 48 49 50
000
FPUS83 KFGF 180231
OPUFGF
PRAIRIE TO PINES WEATHER ROUNDUP
NATIONAL WEATHER SERVICE EASTERN NORTH DAKOTA/GRAND FORKS ND
800 PM CST WED DEC 17 2014

 **SATELLITE DATA USED TO AUGMENT SKY COVER AT AUTOMATED STATIONS**
 *****  WEATHER ACROSS EASTERN NORTH DAKOTA  *****

CITY           SKY/WX    TMP DP  RH WIND       PRES   REMARKS
GRAND FORKS    PTCLDY     6   4  91 CALM      30.32S
GRAND FORKS AF PTCLDY     6   5  98 W3        30.31F
GRAND CITY NWS NOT AVBL
BUXTON           N/A     11   8  89 W3          N/A
DEVILS LAKE    PTCLDY     9   0  66 S3        30.23S
FARGO          PTCLDY    12   7  80 W3        30.31R
WAHPETON ARPT  MOCLDY     9   5  85 CALM      30.32R
$$

 *****  WEATHER ACROSS CENTRAL AND WESTERN NORTH DAKOTA  *****

CITY           SKY/WX    TMP DP  RH WIND       PRES   REMARKS
JAMESTOWN      CLEAR      6   2  83 SE5       30.25S WCI  -3
BISMARCK       PTCLDY    15  11  83 SE6       30.20S WCI   6
MINOT          PTCLDY     8   4  83 SE8       30.17S WCI  -4
MINOT AFB      MOCLDY     5   3  92 S7        30.18S WCI  -7
GARRISON         N/A     11   8  88 SE8       30.16S WCI  -1
WILLISTON      CLOUDY    20  14  77 SE7       30.09S WCI  11
DICKINSON      CLOUDY    18  14  84 SE13      30.04F WCI   5
HETTINGER      CLOUDY    17  15  92 SE13      30.06F FOG     WCI   4
$$

 *****  OTHER OBSERVATIONS NORTHEAST NORTH DAKOTA  *****

CITY           SKY/WX    TMP DP  RH WIND       PRES   REMARKS
WALHALLA         N/A      5   5 100 S5        30.31S WCI  -4
LANGDON        FAIR       5   1  85 SE10      30.24S WCI -10
CAVALIER       FAIR       7   5  92 CALM      30.31S
GRAFTON        NOT AVBL
CANDO          FAIR       1   0  92 SE6       30.24F WCI -10
FORT TOTTEN      N/A      8   4  85 SE3       29.95
ROLLA          FAIR       3   1  92 SW7       30.21F WCI  -9
RUGBY          FAIR       5   3  92 SE7       30.22S WCI  -7
 ***** THE ABOVE OBSERVATIONS ARE NON NWS ARE NOT QUALITY
        CONTROLLED AND MAY MIS-REPORT RAIN FOR SNOW...
$$

 *****  OTHER OBSERVATIONS SOUTHEAST NORTH DAKOTA *****

CITY           SKY/WX    TMP DP  RH WIND       PRES   REMARKS
COOPERSTOWN    NOT AVBL
VALLEY CITY    FAIR       7   7 100 CALM      30.27S
OAKES            N/A      9   9 100 S5        30.27F WCI   0
GWINNER        CLEAR     10   9  92 MISG      30.30R
SHEYENNE NWR     N/A      8   4  84 NE2       29.95S
BUFFALO        NOT AVBL
WYNDMERE         N/A     10   9  92 N1          N/A
 ***** THE ABOVE OBSERVATIONS ARE NON NWS ARE NOT QUALITY
       CONTROLLED AND MAY MIS-REPORT RAIN FOR SNOW...
$$

  *****  WEATHER ACROSS NORTHERN MINNESOTA  *****

CITY           SKY/WX    TMP DP  RH WIND       PRES   REMARKS
FLAG ISLAND    MOCLDY    10   7  85 CALM      30.30S
WARROAD        PTCLDY     7   1  78 CALM      30.31
ROSEAU         PTCLDY    10   5  79 CALM      30.31S
HALLOCK        PTCLDY     9   5  85 CALM      30.31S
THF RVR FALLS  PTCLDY    10   9  92 CALM      30.30S
HALSTAD          N/A      9   5  84 NW2         N/A
FOSSTON        PTCLDY     5   1  85 CALM      30.29S
BAUDETTE       PTCLDY     8   4  83 CALM      30.29S
WASKISH        PTCLDY     9   5  85 CALM      30.29R
CROOKSTON      PTCLDY     9   5  85 CALM      30.32S
$$
  *****  WEATHER ACROSS CENTRAL AND WEST MINNESOTA  *****

CITY           SKY/WX    TMP DP  RH WIND       PRES   REMARKS
BEMIDJI        PTCLDY     8   5  89 CALM      30.27S
PARK RAPIDS    CLEAR     12   9  87 CALM      30.26R
WADENA         PTCLDY     9   7  92 CALM      30.27S
DETROIT LAKES  PTCLDY    12  10  92 E5        30.28S WCI   4
MOORHEAD       CLEAR     10  10 100 CALM      30.31S
FERGUS FALLS   PTCLDY    10   9  92 CALM      30.34R
ELBOW LAKE     FAIR       9   7  92 CALM      30.29S
MORRIS MN      PTCLDY     9   5  85 NW5       30.30S FOG     WCI   0
STAPLES        PTCLDY     9   7  92 CALM      30.28R
WHEATON        PTCLDY     5   3  92 CALM      30.33S
$$
  *****  WEATHER ELSEWHERE ACROSS MINNESOTA  *****

CITY           SKY/WX    TMP DP  RH WIND       PRES   REMARKS
DULUTH         PTCLDY    16  11  80 NE7       30.25S WCI   6
INTRNTL FALLS  MOCLDY    12   1  61 E7        30.29F WCI   1
ELY            PTCLDY     3   1  92 CALM      30.29S
CLOQUET        PTCLDY    10   7  85 CALM      30.27S
BRAINERD       PTCLDY     7   5  91 CALM      30.28S
HIBBING        PTCLDY    14   8  77 NE5       30.27S WCI   6
ALEXANDRIA     PTCLDY    12   8  84 S5        30.28R WCI   4
SAINT CLOUD    PTCLDY    13   8  81 SW3       30.30S
MINNEAPOLIS    PTCLDY    17   8  67 NE3       30.32S
$$

  *****  WEATHER ACROSS SOUTH DAKOTA  *****

CITY           SKY/WX    TMP DP  RH WIND       PRES   REMARKS
SIOUX FALLS    PTCLDY    11   8  88 NE5       30.24F WCI   3
BROOKINGS      NOT AVBL
WATERTOWN      PTCLDY     8   4  83 S3        30.25S
HURON          MOCLDY     9   6  88 NE3       30.25F FOG
SISSETON         N/A      3  -1  83 CALM      30.29S
ABERDEEN       PTCLDY    10   6  84 CALM      30.28F
MITCHELL       PTCLDY    12   9  87 SE5       30.26F WCI   4
PIERRE         CLOUDY    18  15  88 SE12      30.17S WCI   5
MOBRIDGE       MOCLDY    19  11  70 SE10      30.16S WCI   7
RAPID CITY     CLOUDY    22  20  92 SE3       30.02S
$$

  *****  SOME WEATHER IN NEARBY STATES *****

CITY           SKY/WX    TMP DP  RH WIND       PRES   REMARKS
GLASGOW MT     CLOUDY    23  18  81 E9        29.98F WCI  13
GREAT FALLS MT CLEAR     30  25  81 S12       29.86R WCI  20
CHEYENNE WY    CLEAR     28  17  63 W9        29.94R WCI  19
SCOTTSBLUFF NE FOG       20  18  92 E5        30.00R VSB 1/4 WCI  13
OMAHA NE       CLOUDY    28  18  66 E5        30.27S WCI  23
DES MOINES IA  FAIR      24  16  71 NE5       30.29R WCI  18
DAVENPORT IA   CLEAR     18  14  84 W3        30.30S
CHICAGO IL     CLOUDY    25  16  68 NW10      30.26F WCI  15
EAU CLAIRE WI  CLOUDY    16  10  77 W3        30.29S
LA CROSSE WI   CLOUDY    21  12  68 NW6       30.32S WCI  13
$$

  *****  SOME NATIONAL WEATHER *****

CITY           SKY/WX    TMP DP  RH WIND       PRES   REMARKS
LA GUARDIA NY  MOCLDY    45  33  63 W15G24    29.89R
RALEIGH NC     MOCLDY    44  36  73 CALM      30.08R
ATLANTA GA     MOCLDY    40  35  83 W7        30.17F
NEW ORLEANS LA CLOUDY    52  41  66 E5        30.20R
OKLAHOMA CITY  CLOUDY    38  35  89 SE8       30.12F FOG
ALBUQUERQUE NM CLOUDY    38  36  92 SE7       30.05R
SALT LAKE CITY MOCLDY    33  29  85 W6        30.01R
LOS ANGELES CA CLOUDY    60  44  55 N3        30.06S
BOISE ID       CLOUDY    41  34  76 E6        29.99S
SEATTLE WA     CLOUDY    46  43  89 S3        29.89R
$$

*** WEATHER ACROSS MANITOBA...SASKATCHEWAN AND ONTARIO ***
                ***ONTARIO***

CITY           SKY/WX    TMP DP  RH WIND       PRES   REMARKS
GERALDTON      CLEAR      1  -2  85 NW3       30.30R
THUNDER BAY    CLEAR      9   3  78 NW6       30.36  WCI  -1
SIOUX LOOKOUT    N/A     -6 -11  77 CALM      30.34S
TORONTO        LGT SNOW  32  28  86 W16G22    29.96S WCI  21
BIG TROUT LK   CLEAR      0  -4  85 W7        30.27F WCI -13
PICKLE LAKE    CLEAR      0  -4  85 SW5       30.31S WCI -10
DRYDEN         CLEAR      3   0  85 E3        30.32F
KENORA         PTCLDY     9   1  72 E12       30.30S WCI  -6
$$
                *** MANITOBA***

CITY           SKY/WX    TMP DP  RH WIND       PRES   REMARKS
BRANDON        CLEAR      3   0  85 SE7       30.24F WCI  -9
DAUPHIN        CLEAR     -2  -6  84 W5        30.22F WCI -12
ISLAND LAKE    CLEAR      3   0  85 S6        30.27F WCI  -8
PILOT MOUND      N/A      1   0  92 SE8         N/A  WCI -12
THE PAS        CLEAR     10   7  85 SE7       30.13F WCI   0
THOMPSON       PTCLDY    12   9  85 SW7       30.13F WCI   2
WINNIPEG       CLEAR      5   1  85 S5        30.33S WCI  -4
LYNN LAKE      FLURRIES  14  12  92 SW9       30.01F WCI   2
CHURCHILL      CLEAR      7   3  85 SW9       30.01  WCI  -7
GILLAM         FLURRIES  14  12  92 W14       30.13  WCI  -1
$$
                ***SASKATCHEWAN***

CITY           SKY/WX    TMP DP  RH WIND       PRES   REMARKS
ESTEVAN        FLURRIES  16  12  86 S13       30.10F WCI   2
KINDERSLEY     PTCLDY    16  14  93 SE7       29.88S WCI   6
LLOYDMINSTER   CLOUDY    18  16  93 S8        29.88S FOG     WCI   7
PRINCE ALBERT  FLURRIES  18  14  86 S7        30.03F WCI   8
REGINA         FLURRIES  16  14  93 S15       30.06S WCI   1


USA.gov is the U.S. government's official web portal to all federal, state and local government web resources and services.